Theta_e
287 286 285 285 283 283 282 281 281 281 281 281 282 283 284 285 286 287 287 289 290 291 293 294 295 295 296 298 299 301 303 303 307 309 316 317 321 320
286 286 285 285 284 283 283 282 282 282 281 282 283 283 284 285 286 287 288 288 289 290 293 295 295 296 297 299 299 301 302 303 308 309 314 323 321 321
286 285 285 285 284 284 283 283 283 283 282 283 284 284 284 285 286 286 287 287 288 291 292 294 295 295 298 299 300 301 303 306 310 311 315 321 321 329
286 285 285 285 284 284 284 283 284 284 283 283 284 284 284 285 286 286 287 287 288 290 292 294 294 295 297 298 300 301 304 307 311 313 312 322 322 323
285 285 285 285 284 284 284 284 284 284 284 284 284 284 285 285 286 286 287 288 289 290 293 294 293 294 298 299 301 302 305 308 311 314 315 320 322 325
285 285 284 284 284 285 284 285 284 285 285 284 284 285 285 286 286 287 287 288 289 290 293 293 293 295 299 301 303 307 307 309 312 314 317 321 320 327
285 284 285 285 285 285 285 285 286 285 285 285 285 285 286 286 287 288 288 288 289 290 291 293 294 297 299 300 302 308 309 310 312 313 313 317 319 319
284 284 284 285 285 285 285 285 285 286 286 286 286 286 286 287 288 288 289 289 290 290 290 293 295 296 299 301 306 308 309 311 312 313 314 318 322 325
284 284 284 285 285 285 286 286 287 288 287 287 287 286 286 287 288 288 289 289 289 290 291 291 295 294 297 300 301 306 309 310 312 312 314 316 319 324
284 284 284 285 285 285 286 287 286 286 287 287 287 286 287 287 288 288 289 289 289 290 291 291 292 294 296 301 302 305 308 310 312 312 313 316 319 319
284 285 285 285 284 285 286 286 286 287 287 287 287 287 287 287 287 288 289 289 290 290 293 291 291 293 296 302 301 305 309 311 314 315 316 317 318 320
285 285 284 284 285 285 286 285 285 285 286 288 289 289 288 287 288 288 289 289 289 289 291 290 290 291 291 298 300 306 311 315 317 318 317 320 320 320
285 284 283 284 285 285 284 284 284 285 286 286 287 287 287 287 288 288 289 289 289 291 291 288 289 291 290 294 303 312 313 317 318 319 320 319 321 320
283 283 283 284 283 283 282 282 284 285 286 286 287 288 287 288 288 288 289 289 290 291 291 289 289 291 290 292 300 312 315 317 317 318 319 320 320 319
283 283 283 282 281 281 281 281 282 285 285 286 286 286 287 288 288 288 289 289 291 292 291 290 290 293 292 293 296 312 314 316 317 318 320 318 319 317
282 283 282 281 281 281 281 282 282 284 285 286 286 286 287 287 288 288 288 289 291 292 292 291 290 290 294 292 296 312 316 315 316 318 317 316 315 312
282 282 282 281 281 281 281 281 282 283 284 285 286 286 286 287 287 288 288 289 290 291 292 293 292 290 292 292 294 300 308 310 314 316 314 308 308 313
281 281 281 281 280 280 281 281 282 282 283 285 286 286 287 287 287 287 288 289 290 291 292 292 293 294 292 291 291 294 297 300 300 303 309 304 301 302
281 281 280 280 280 280 281 281 281 282 282 284 286 287 287 287 287 288 288 289 290 291 292 291 293 292 291 289 290 293 294 296 298 298 301 309 308 303
280 280 280 280 280 280 280 281 281 282 283 284 286 287 287 287 287 288 289 289 290 291 292 291 293 292 292 288 287 291 295 298 310 302 303 303 301 301
280 280 280 280 280 280 280 281 281 282 283 284 286 287 287 286 287 288 289 289 290 291 291 289 287 290 291 293 295 293 292 295 304 306 302 301 297 296
280 280 280 280 280 280 280 281 281 282 283 284 286 287 287 286 287 288 288 289 290 290 289 289 288 291 293 293 288 288 290 292 296 298 299 304 300 292
280 280 280 280 280 280 280 281 281 282 283 284 285 286 286 286 287 288 289 290 290 290 290 289 290 290 288 287 289 288 289 290 292 293 291 295 298 298
Wind_Speed
21 21 22 23 23 24 25 26 29 38 41 40 44 43 40 39 36 38 39 35 33 31 28 28 30 34 37 38 39 41 42 41 43 48 43 52 53 54
20 21 22 23 25 26 27 27 28 33 43 41 48 45 41 39 38 39 36 35 34 31 30 30 33 35 36 38 38 42 45 42 40 49 47 47 52 52
19 22 24 24 27 29 29 28 28 29 38 45 44 45 44 41 42 42 35 41 38 31 30 34 36 35 35 35 39 41 43 43 41 45 50 42 47 46
21 23 26 26 27 27 27 26 29 32 36 43 47 48 45 44 45 42 41 41 38 36 34 34 31 30 30 39 38 40 40 46 44 36 47 48 46 48
22 25 25 26 30 30 27 31 32 34 35 39 44 41 44 41 43 40 42 42 41 39 35 38 35 32 30 32 31 37 42 42 39 32 48 40 44 57
24 25 26 27 28 27 29 32 31 34 36 36 38 41 42 40 39 44 45 44 47 42 40 46 41 27 16 20 27 31 38 39 38 35 39 36 37 55
24 23 24 24 25 25 26 28 32 34 34 36 36 37 37 38 43 47 43 47 47 39 45 51 40 26 17 14 18 27 29 37 38 35 38 32 43 53
25 25 24 24 24 26 28 28 25 29 33 36 40 35 37 38 42 46 41 44 48 42 50 55 43 38 22 19 24 33 31 36 39 37 39 36 43 49
24 25 26 25 29 29 28 25 31 33 29 31 36 35 37 37 42 42 41 41 44 47 45 53 44 46 31 20 26 35 38 36 45 43 42 47 45 63
22 24 27 30 30 30 34 37 36 34 33 31 32 33 33 35 36 37 40 40 44 43 43 43 48 51 39 17 20 34 41 38 44 45 47 50 50 49
22 26 30 30 33 30 31 34 37 37 33 31 31 29 30 31 30 33 36 40 41 47 44 36 45 51 39 11 12 32 42 41 40 41 47 51 53 57
29 31 32 31 27 28 32 37 40 40 35 33 32 34 33 31 26 27 33 36 38 44 37 50 45 37 22 13 15 18 37 38 41 41 47 47 56 62
30 32 33 29 29 32 33 34 34 33 33 32 32 29 30 27 28 29 29 28 34 39 42 36 39 34 22 24 7 24 37 38 41 40 42 41 47 69
30 33 31 30 33 33 31 30 27 28 25 26 26 28 27 27 29 30 28 28 24 30 37 30 26 21 20 19 5 24 36 37 40 40 44 63 68 68
30 29 31 35 33 32 29 28 22 21 19 21 24 28 24 24 28 30 29 30 26 30 28 26 23 15 17 10 4 28 39 36 39 43 45 56 64 69
29 32 33 29 27 26 26 25 20 18 17 19 21 24 21 22 27 26 29 33 30 35 27 24 24 25 19 23 23 36 40 32 52 45 49 55 64 72
27 29 29 29 30 30 29 27 24 17 16 16 17 18 21 20 26 24 26 30 27 34 35 31 15 26 29 31 37 46 50 55 62 63 61 57 61 79
25 28 29 30 31 30 30 30 26 21 16 16 16 15 16 17 23 24 23 26 26 31 32 31 17 11 22 36 42 40 46 59 59 68 77 73 59 57
27 29 30 29 31 30 29 29 28 23 18 16 16 13 13 15 21 19 21 24 24 27 27 25 15 25 33 36 35 38 47 56 64 62 67 75 70 64
29 30 31 30 30 30 29 28 27 24 18 14 12 9 11 14 17 15 18 20 22 24 21 21 18 28 36 34 38 34 41 54 71 66 66 65 62 63
30 32 31 31 30 29 28 26 25 22 18 14 10 8 10 12 12 12 15 16 17 18 18 19 22 25 32 38 42 42 43 50 57 63 65 66 62 60
28 31 31 32 30 29 29 25 24 21 16 12 8 6 8 9 9 9 10 13 15 13 13 12 12 19 29 40 48 46 46 48 53 54 52 55 60 46
28 31 32 31 31 30 29 26 24 21 16 13 7 5 8 6 5 5 7 8 9 7 9 11 12 23 35 39 45 46 48 51 51 51 37 32 50 57
Wind_Direction
321 322 321 323 320 317 314 309 306 302 306 311 316 327 326 327 327 324 324 321 319 309 301 291 284 279 273 267 269 266 259 264 243 247 243 227 227 228
322 322 322 322 319 318 315 311 308 304 295 309 318 320 323 323 326 326 321 324 325 311 308 299 296 286 275 268 268 263 257 259 241 243 243 231 222 223
322 320 322 325 320 318 315 312 310 310 301 311 316 322 322 324 324 324 324 327 323 316 306 300 303 295 273 267 264 260 256 240 232 242 233 224 222 208
322 322 325 325 322 320 321 318 316 317 310 304 315 317 319 324 323 324 322 324 321 315 308 315 315 298 273 264 257 257 244 233 231 239 222 216 198 201
323 324 324 328 328 326 325 319 320 317 315 311 306 309 315 318 322 323 326 327 328 320 314 330 323 309 274 262 254 242 230 236 239 232 232 219 198 200
324 326 327 324 320 322 324 316 314 312 311 307 304 309 315 320 319 323 321 325 327 326 326 332 328 323 285 260 239 227 229 233 232 226 223 216 204 189
319 321 321 322 322 316 307 312 311 306 307 308 304 309 313 318 325 328 320 321 324 322 328 330 332 333 305 299 250 225 236 234 224 219 227 223 201 201
319 323 324 323 324 321 315 305 302 301 299 301 305 305 309 320 328 322 320 322 320 324 327 327 333 336 327 277 242 229 230 223 216 212 212 207 201 190
321 322 323 323 320 317 316 318 317 315 310 302 301 308 314 318 323 323 322 320 317 321 328 322 332 329 327 267 256 238 228 218 208 205 207 202 203 184
322 325 326 323 325 325 318 313 310 308 310 311 313 311 311 312 313 319 321 321 320 323 328 315 328 328 330 267 252 235 225 222 206 208 206 205 204 199
329 330 331 324 320 317 314 312 309 307 305 308 306 312 313 311 317 325 328 327 322 325 331 322 320 327 333 276 253 227 215 209 204 205 201 201 208 202
335 330 326 325 321 320 316 311 305 302 304 309 313 308 311 321 324 325 331 327 326 324 325 322 323 331 320 309 315 220 194 198 194 196 198 201 200 202
324 324 327 331 323 318 315 307 303 304 296 298 302 311 313 322 324 328 331 328 325 320 322 328 322 330 316 303 311 184 187 184 191 195 193 205 192 180
325 327 331 325 321 320 319 318 311 306 297 293 308 309 314 323 325 328 333 332 328 325 330 340 327 335 338 326 311 169 183 188 187 189 184 178 172 164
327 327 323 327 326 325 326 323 316 319 309 299 307 312 315 322 320 327 331 342 337 345 345 4 7 1 36 12 58 151 176 184 185 183 175 164 157 157
334 326 327 326 328 331 332 334 326 319 322 307 310 315 322 326 327 336 338 344 343 347 350 0 15 37 53 53 86 133 161 156 174 171 164 151 153 149
325 330 333 340 342 342 341 341 338 324 320 312 310 313 320 329 331 339 339 342 345 347 348 358 22 56 65 64 74 104 123 131 153 160 154 136 141 153
338 342 345 346 344 342 341 339 340 333 319 321 318 315 320 329 331 333 341 345 350 354 352 360 13 76 75 72 76 95 108 119 124 134 148 135 130 139
357 351 347 346 344 342 340 339 336 333 322 318 326 325 327 328 328 339 347 349 358 359 2 11 43 82 77 62 65 93 107 118 123 120 129 143 141 142
0 354 348 346 344 341 338 336 335 331 325 313 320 322 324 332 331 344 351 352 358 1 12 34 54 81 87 79 69 76 106 119 135 129 131 137 136 145
1 353 349 346 343 341 337 334 333 330 326 315 316 310 322 335 328 336 350 359 359 9 28 56 88 97 99 104 96 90 89 109 129 137 140 138 134 138
1 355 349 347 343 341 338 333 332 330 321 309 302 309 299 314 316 325 349 359 2 19 49 69 86 107 107 108 102 103 104 112 123 129 133 147 146 130
359 358 352 348 346 341 340 333 330 329 320 309 267 291 312 316 294 313 350 1 -0 29 56 88 101 113 110 107 115 112 114 113 121 119 105 131 145 143